Regional Weather Roundup
Issued by NWS Wakefield, VA

Home | Current Version | Previous Version | Graphics & Text | Print | Product List | Glossary On
Versions: 1 2 3 4 5 6 7 8 9 10 11 12 13 14 15 16 17 18 19 20 21 22 23 24 25 26 27
000
ASUS41 KAKQ 181510
RWRAKQ

REGIONAL WEATHER ROUNDUP
NATIONAL WEATHER SERVICE WAKEFIELD VA
1100 AM EDT FRI APR 18 2014

Note: "fair" indicates few or no clouds below 12,000 feet with no
significant weather and/or obstructions to visibility. * = Denotes
station may not report precipitation (e.g., rain,snow,etc.),
thunder or fog.

VAZ042-051-052>054-056-181600-
NORTHERN VIRGINIA

CITY           SKY/WX    TMP DP  RH WIND       PRES   REMARKS
WASH NATIONAL  CLOUDY    46  32  58 NE3       30.50F
DULLES         CLOUDY    43  31  62 CALM      30.48F
FORT BELVOIR   CLOUDY    46  32  58 VRB2      30.50F
QUANTICO       CLOUDY    44  32  62 CALM      30.51F
FREDERICKSBRG* CLOUDY    45  34  65 CALM      30.49S
STAFFORD*      NOT AVBL
WARRENTON      CLOUDY    44  38  80 CALM      30.49S
CULPEPER*      CLOUDY    45  34  65 CALM      30.50R
MANASSAS*      CLOUDY    45  34  65 CALM      30.49F
LEESBURG*      CLOUDY    43  34  70 CALM      30.49F
WINCHESTER     NOT AVBL
$$

VAZ048-049-060>072-079>083-181600-
CENTRAL AND SOUTH CENTRAL VIRGINIA...AND NORTH CENTRAL NORTH CAROLINA

CITY           SKY/WX    TMP DP  RH WIND       PRES   REMARKS
RICHMOND       PTSUNNY   47  33  58 N8        30.47F
CHESTERFIELD*  NOT AVBL
HANOVER        PTSUNNY   45  33  63 W6        30.49F
TAPPAHANNOCK*  CLOUDY    45  32  59 NE7       30.49S
CHARLOTTSVILLE PTSUNNY   46  36  68 VRB5      30.45F
ORANGE*        CLOUDY    43  34  70 CALM      30.49S
LOUISA*        CLOUDY    46  36  66 NE5       30.46S
FARMVILLE*     NOT AVBL
SOUTH HILL*    PTSUNNY   48  36  61 NE6       30.49F
ROANOKE RAPIDS PTSUNNY   52  41  66 N8        30.43F
RALEIGH        CLOUDY    49  35  58 VRB7      30.43S
$$

VAZ088>098-181600-
SOUTHEAST VIRGINIA

CITY           SKY/WX    TMP DP  RH WIND       PRES   REMARKS
NORFOLK        CLOUDY    47  38  71 NE13      30.46R
VIRGINIA BEACH PTSUNNY   49  39  68 NE14      30.45S
NORFOLK NAVAL  CLOUDY    49  38  65 NE10      30.48S
WEST POINT*    CLOUDY    49  35  58 NE5       30.49F
NEWPORT NEWS   PTSUNNY   50  38  63 NE12      30.46F
LANGLEY AFB    CLOUDY    47  39  72 E9        30.47F
FORT EUSTIS    PTSUNNY   50  40  68 E7        30.44F
WILLIAMSBURG*    N/A     54  39  58 NE6       30.46F
FRANKLIN*      NOT AVBL
WAKEFIELD      PTSUNNY   49  37  63 VRB6      30.46F
$$

VAZ020-022-025-037-045-181600-
WESTERN AND SOUTHWEST VIRGINIA

CITY           SKY/WX    TMP DP  RH WIND       PRES   REMARKS
STAUNTON*      PTSUNNY   45  34  67 CALM      30.44S
HOT SPRINGS VA PTSUNNY   45  28  53 W5        30.40S
LYNCHBURG      CLOUDY    50  36  58 NE3       30.46F
DANVILLE       CLOUDY    48  36  63 N6        30.46S
MARTINSVILLE   CLOUDY    47  38  71 N5        30.47S
ROANOKE        CLOUDY    43  35  73 CALM      30.46S
BLACKSBURG     CLOUDY    45  39  81 CALM      30.43S
DUBLIN*        CLOUDY    43  37  80 CALM      30.43R
MARION*        NOT AVBL
HILLSVILLE*    CLOUDY    45  36  70 S5        30.42F
RICHLANDS*     CLOUDY    55  27  34 CALM      30.37R
WISE*          CLOUDY    55  27  33 CALM      30.36F
ABINGDON*      CLOUDY    52  31  45 SE6       30.37S
$$

MDZ021>025-VAZ099-100-181600-
SOUTHERN MARYLAND AND THE DELMARVA PENINSULA

CITY           SKY/WX    TMP DP  RH WIND       PRES   REMARKS
PATUXENT RIVER CLOUDY    44  34  67 VRB3      30.49S
BAY BRIDGE APT PTSUNNY   43  32  65 E6        30.49F
LEONARDTOWN    CLOUDY    43  32  65 NW6       30.50S
DOVER          CLOUDY    43  34  69 NE6       30.45F
GEORGETOWN     CLOUDY    46  34  62 NE13      30.48F
EASTON         CLOUDY    46  36  66 NE7       30.52F
CAMBRIDGE      CLOUDY    48  34  57 NE3       30.48S
SALISBURY      PTSUNNY   49  35  58 NE9       30.46F
OCEAN CITY     CLOUDY    46  36  68 NE10      30.47F
WALLOPS ISLAND PTSUNNY   50  39  66 E12       30.47S
ACCOMACK*      PTSUNNY   48  36  61 E9        30.46R
$$

NCZ012>017-030>032-181600-
EASTERN NORTH CAROLINA

CITY           SKY/WX    TMP DP  RH WIND       PRES   REMARKS
ELIZABETH CITY MOSUNNY   51  40  65 N16       30.42F
AHOSKIE*       MOSUNNY   50  39  65 N8        30.43F
EDENTON*       MOSUNNY   52  42  68 NE9       30.41F
CURRITUCK*     CLOUDY    50  39  67 N16       30.43F
KILL DEVIL HLS MOSUNNY   49  42  75 N10G22    30.40F
MANTEO         PTSUNNY   50  43  75 N17G24    30.42R
CAPE HATTERAS  CLOUDY    51  46  83 N15G26    30.38R
GOLDSBORO      MOSUNNY   52  41  67 N12       30.39S
WASHINGTON     SUNNY     53  45  76 N6        30.41S
GREENVILLE     MOSUNNY   54  41  62 N7        30.40F
NEW BERN       MOSUNNY   55  45  68 N9        30.39F
WILMINGTON     CLOUDY    59  43  55 N9        30.35F
$$

VAZ048-181600-
ELSEWHERE

CITY           SKY/WX    TMP DP  RH WIND       PRES   REMARKS
HARRISBURG PA  CLOUDY    45  31  58 S5        30.49R
BALTIMORE      CLOUDY    42  31  64 E8        30.48F
ANNAPOLIS      CLOUDY    42  32  67 E5        30.49F
ANDREWS AFB    PTSUNNY   44  32  63 CALM      30.48F
WILMINGTON DE  CLOUDY    44  30  57 NE7       30.50F
PHILADELPHIA   CLOUDY    45  29  53 E7        30.50F
WILDWOOD NJ*   CLOUDY    43  30  61 NE13      30.50S
ATLANTIC CITY  CLOUDY    45  34  65 E15       30.49S
HENDERSON NC   PTSUNNY   48  36  63 NE5       30.44S
GREENSBORO     CLOUDY    46  35  65 NE6       30.43R
ROCKY MOUNT      N/A     52  39  61 N10       30.43F
FAYETTEVILLE   CLOUDY    52  37  56 NE12G21   30.38F
CHARLOTTE      CLOUDY    52  40  63 N9        30.42S
$$

VAZ100-181600-
MARINE

STATION/POSITION TIME  TEMP    WIND        PRES    WAVE   SWELL
                       AIR SEA DIR/SP/G            HT/PER HT/PER
                 (UTC) (F)     (DEG/KT/KT) (MB)    (FT/S) (FT/S)
44066 TX TWR #4  1500   40 44   30/ 14/ 16 1031.6F   8/10   7/10
CAPE MAY NJ      1500   43 51   50/  7/ 12 1032.1F
LEWES DE         1500   42 47   50/ 12/ 13 1031.7F
15NM E FENWICK I 1500   43 45              1031.1F   7/ 9
OCEAN-CITY-INLET 1500   44 46   30/  7/ 10 1031.2F
WACHAPREAGUE VA  1500   46 50   50/ 12/ 15 1031.3R
THOMAS POINT MD  1500   41 52   60/  5/  7 1033.0F
GOOSES REEF MD   1500   42      60/  8/ 10 1034.9S
COVE POINT MD    1500   42      40/  6/  7 1032.3S
SOLOMONS ISLAND  1500      51                N/A
BISHOPS HEAD MD  1500   45 51   40/  3/  6 1031.9R
PINEY POINT MD   1500           80/  3/  5   N/A
POTOMAC MD       1500   43      50/  8/ 10 1031.8R
CAMBRIDGE MD     1500   44 55   60/  2/  4 1031.8F
LEWISETTA VA     1500   43 53   40/  4/  7 1032.1F
RAPPAHANNOCK LGT 1500           10/  5/  7 1032.3S
STINGRAY PT      1500   44      30/  8/ 10 1031.8R
YORK RVR RNG VA  1500   44      70/ 10/ 13 1031.0F
YORKTOWN VA      1500   45 54   50/  9/ 11 1031.3F
JAMESTOWN VA     1500   46      60/  4/  8   N/A
DOMINION TERM VA 1500   46      30/  3/  7 1031.5F
KIPTOPEKE VA     1500      51   30/  9/ 12   N/A
CHES BAY BRIDGE  1500   44 51   20/ 12/ 15 1031.3F
CAPE HENRY VA    1500   44      20/ 12/ 16   N/A
CHESAPEAKE LGHT  1400   44      20/ 17/ 18 1030.8F
WILLOUBY STN VA  1500   44      40/  9/ 11 1030.7S
S CRANEY ISL VA  1500          360/ 11/ 14 1031.6S
CAPE HENRY BUOY  1500      46                N/A     6/11   3/11
1ST LANDING BUOY 1500      45                N/A     6/11   5/11
64NM E OF VA BCH 1500   49 49   10/ 17/ 19 1028.6F   8/12   7/12
DUCK PIER NC     1500   46 51   10/ 16/ 20 1029.0F
44100 DUCK FRF   1500      48                N/A     8/11   3/11
44056 DUCK FRF   1500      50                N/A     7/11   3/11
OREGON INLET NC  1500   48 50  360/ 17/ 22 1029.5F
HATTERAS NC      1500   49 54   10/ 23/ 27 1028.6F
CAPE LOOKOUT NC  1400   53      20/ 19/ 21 1027.6S
FRYING PAN SHLS  1500   58 64   40/ 21/ 25 1025.7S   7/ 6
$$



USA.gov is the U.S. government's official web portal to all federal, state and local government web resources and services.